loading
DOY 198 | 2024-07-16T13:31:47Z

STARLINK-31862, 59786

Orbit data source: Space-Track

STARLINK-31862, 59786 is a payload satellite owned by SpaceX/Seattle (US) in LEO that was launched on Sat, 18 May 2024 UTC via a Falcon 9 launch vehicle from the Air Force Eastern Test Range (AFETR). Payloads include a variety of satellites, spacecraft, and rockets equipped with specific instruments for various scientific and technological missions. These include communications satellites like Starlink; space stations such as the ISS; scientific satellites like the Hubble; Earth observation satellites from companies like Planet Labs, Umbra, and HawkEye 360; GPS; miniature CubeSats for education and research; and military/defense satellites.

Loading next visibility...
Loading greatness...
STARLINK-31862 details
NORAD ID59786
COSPAR ID
2024-093E
Orbit
LEO
Last TLE update15 hours ago
Origin
Flag of USSpaceX/Seattle (US)
ManufacturerSpaceX/Seattle
BusStarlink V2M
MotorUnknown
Mass750 kg wet, ~700 kg dry
Launch date (UTC)
2024-05-18 (2 months ago)
Launch vehicle
Falcon 9
Launch site
Air Force Eastern Test Range (AFETR)
Object type
Payload
Rocket body
Debris
Radar Cross SectionLarge (>1 m²)
Predictive object data (real-time)
Latitude-43.15166°
Longitude31.76518°
Altitude455.854 km
Speed7.64 km/s
Apparent Right ascension17h 10m 15s
Apparent Declination-50° 56' 35"
Sunlit
Object is in full shadow
Predictive observer data (real-time)
Local Sidereal Time02:10:50
Azimuth235.192° WSW
Elevation-57.233°
Doppler factor1
Orbital elements
Apogee447.592 km
Perigee444.471 km
Semi-major axis6,824.169 km
Eccentricity0.0002287
Inclination43.0048°
RAAN33.3296°
Arg. of periapsis271.608°
True anomaly88.4776°
Mean anomaly88.4514°
Mean motion3.85007 °/min
BSTAR0.00002172
Period93.5 mins
Definitive object data (Epoch: 2024-07-15T22:21:17.938Z)
Latitude-0.00005°
Longitude123.7472°
Altitude443.809 km
Speed7.648 km/s
True Right ascension02h 13m 19s
True Declination0° 00' 00"
Sunlit
Object was in daylight at TLE epoch
TLE from 15 hours ago
0 STARLINK-31862
1 59786U 24093E   24197.93145762  .00000603  00000-0  21720-4 0  9998
2 59786  43.0048  33.3296 0002287 271.6080  88.4514 15.40688484 10217
Epoch: 2024-07-15T22:21Z
No data available

STARLINK-31862 Visibility forecast

Observer location: 39.9160978°, -105.1181434

STARLINK-31862 is not visible in the next 10 days
Span
Click to sort rows by Start time (UTC) header in descending order
Start Az.
Max El. time (UTC)
Max El. Az.
Max El.
End time (UTC)
End Az.